FW0956 Weather Reports


time (UTC)temp
C
wind
direction
speed
KPH
gust
KPH
rain 1hr
cm
rain 24hr
cm
rain mn
cm
humidity
%
barometer
mb
20260507124616 7 268 1.6 4.8 0.00 0.15 0.03 63 1013.4
20260507123610 6 291 1.6 11.3 0.00 0.15 0.03 64 1013.4
20260507122632 6 313 4.8 11.3 0.00 0.15 0.03 65 1013.3
20260507121623 6 311 3.2 12.9 0.00 0.18 0.03 65 1013.3
20260507120628 6 312 4.8 11.3 0.00 0.20 0.03 66 1013.2
20260507115624 6 302 3.2 9.7 0.00 0.23 0.03 66 1013.0
20260507114609 5 298 3.2 9.7 0.00 0.25 0.03 67 1013.0
20260507113639 5 296 3.2 9.7 0.00 0.30 0.03 68 1012.8
20260507112631 5 302 6.4 11.3 0.00 0.36 0.03 69 1012.8
20260507111622 5 300 3.2 9.7 0.00 0.41 0.03 70 1012.8
20260507110635 5 308 3.2 9.7 0.00 0.43 0.03 75 1012.7
20260507105640 4 309 3.2 8.0 0.00 0.43 0.03 76 1012.7
20260507104640 3 311 3.2 9.7 0.00 0.43 0.03 79 1012.7
20260507103633 2 320 3.2 8.0 0.00 0.43 0.03 82 1012.6
20260507101636 2 354 3.2 4.8 0.00 0.46 0.03 85 1012.8
20260507100605 2 354 3.2 4.8 0.00 0.48 0.03 83 1012.9
20260507095620 2 354 3.2 4.8 0.00 0.48 0.03 83 1012.8
20260507093605 2 354 1.6 3.2 0.00 0.48 0.03 82 1012.8
20260507092612 2 354 1.6 3.2 0.00 0.48 0.03 82 1012.8
20260507085607 3 354 0.0 1.6 0.00 0.48 0.03 79 1012.6
20260507084645 3 354 0.0 1.6 0.00 0.48 0.03 77 1012.6
20260507083616 3 354 1.6 3.2 0.00 0.48 0.03 75 1012.7
20260507081614 5 0 0.0 3.2 0.00 0.48 0.03 70 1012.7
20260507080603 6 0 0.0 3.2 0.00 0.48 0.03 66 1012.7
20260507075630 6 0 0.0 3.2 0.00 0.48 0.03 63 1012.8
20260507073643 6 287 0.0 8.0 0.00 0.48 0.03 61 1012.7
20260507072607 6 322 0.0 8.0 0.00 0.48 0.03 61 1012.7
20260507071617 6 289 0.0 9.7 0.00 0.48 0.03 61 1012.7
20260507070633 6 329 3.2 8.0 0.00 0.48 0.03 61 1012.6
20260507065608 6 267 1.6 3.2 0.00 0.48 0.03 61 1012.7
20260507064608 6 320 0.0 8.0 0.00 0.48 0.03 60 1012.7
20260507063620 6 260 0.0 9.7 0.00 0.48 0.03 60 1012.8
20260507061606 6 290 1.6 8.0 0.00 0.48 0.03 61 1012.8
20260507060636 6 266 3.2 8.0 0.00 0.48 0.03 61 1013.1
20260507055617 7 275 0.0 3.2 0.00 0.48 0.03 60 1013.1
20260507053609 7 257 3.2 6.4 0.03 0.48 0.03 59 1012.9
20260507052608 7 254 0.0 3.2 0.03 0.48 0.03 58 1013.2
20260507051637 7 331 3.2 8.0 0.03 0.48 0.03 57 1013.2
20260507050602 7 288 1.6 4.8 0.03 0.48 0.03 56 1013.1
20260507045644 7 304 1.6 8.0 0.03 0.48 0.03 56 1013.2
20260507044637 7 296 1.6 9.7 0.00 0.46 0.00 55 1013.2
20260507043637 7 303 1.6 8.0 0.00 0.46 0.00 55 1013.0
20260507041638 7 253 1.6 4.8 0.00 0.46 0.00 56 1012.8
20260507040610 7 288 1.6 4.8 0.00 0.46 0.00 55 1012.6
20260507034620 7 243 1.6 4.8 0.00 0.46 0.46 56 1012.9
20260507033622 7 297 9.7 17.7 0.00 0.46 0.46 56 1012.8
20260507032619 8 301 1.6 9.7 0.00 0.46 0.46 62 1012.6
20260507031602 8 288 0.0 3.2 0.00 0.46 0.46 63 1012.6
20260507030645 8 288 3.2 17.7 0.00 0.46 0.46 63 1012.5
20260507025620 8 318 4.8 9.7 0.00 0.46 0.46 64 1012.3
20260507024635 8 274 0.0 11.3 0.00 0.46 0.46 66 1012.3
20260507023626 8 5 6.4 11.3 0.00 0.46 0.46 68 1012.3
20260507021636 8 339 6.4 14.5 0.00 0.46 0.46 71 1012.0
20260507015627 9 296 4.8 14.5 0.00 0.46 0.46 78 1012.3
20260507014624 9 321 6.4 12.9 0.00 0.46 0.46 82 1012.3
20260507012625 9 295 0.0 9.7 0.00 0.46 0.46 82 1012.3
20260507011635 9 294 0.0 8.0 0.00 0.46 0.46 81 1012.3
20260507010610 9 282 4.8 11.3 0.00 0.46 0.46 82 1012.2
20260507005639 9 308 1.6 8.0 0.00 0.46 0.46 82 1012.2
20260507003646 10 270 0.0 9.7 0.00 0.46 0.46 82 1012.1
20260507002626 10 335 1.6 12.9 0.00 0.46 0.46 82 1011.6
20260507001637 10 343 1.6 8.0 0.00 0.46 0.46 82 1011.6
20260507000621 10 319 0.0 8.0 0.00 0.46 0.46 82 1011.6
20260506235648 10 315 1.6 4.8 0.00 0.46 0.46 82 1011.2
20260506233642 10 273 1.6 8.0 0.00 0.46 0.46 82 1010.9
20260506232641 10 268 3.2 9.7 0.00 0.46 0.46 82 1010.7
20260506231634 10 280 3.2 9.7 0.00 0.46 0.46 82 1010.7
20260506230604 10 346 0.0 9.7 0.00 0.46 0.46 82 1010.6
20260506224611 10 269 3.2 11.3 0.00 0.46 0.46 85 1010.9
20260506223620 10 271 6.4 20.9 0.00 0.46 0.46 85 1010.7
20260506222619 10 334 8.0 19.3 0.00 0.46 0.46 85 1010.2
20260506221615 10 306 6.4 19.3 0.00 0.46 0.46 83 1010.2
20260506220612 11 308 8.0 19.3 0.00 0.46 0.46 83 1010.1
20260506215606 11 274 0.0 11.3 0.00 0.46 0.46 82 1010.0
20260506213605 11 296 8.0 12.9 0.00 0.46 0.46 83 1009.7
20260506212612 11 275 6.4 12.9 0.00 0.46 0.46 83 1009.4
20260506211636 11 247 3.2 16.1 0.00 0.46 0.46 84 1009.4
20260506210620 12 253 6.4 20.9 0.00 0.46 0.46 84 1009.0
20260506205604 12 263 6.4 17.7 0.00 0.46 0.46 84 1008.9
20260506204601 12 269 6.4 19.3 0.00 0.46 0.46 85 1008.9
20260506203642 12 255 8.0 16.1 0.00 0.46 0.46 85 1008.8
20260506201600 12 240 8.0 27.4 0.00 0.46 0.46 87 1008.7
20260506200622 12 246 6.4 30.6 0.00 0.46 0.46 88 1008.5
20260506195635 12 241 4.8 17.7 0.00 0.46 0.46 90 1008.3
20260506194608 12 246 9.7 25.7 0.00 0.46 0.46 91 1008.3
20260506192613 12 257 4.8 12.9 0.00 0.46 0.46 93 1008.2
20260506191634 12 275 4.8 19.3 0.00 0.46 0.46 92 1008.2
20260506190638 13 296 14.5 25.7 0.00 0.46 0.46 93 1007.9
20260506185603 13 257 6.4 12.9 0.00 0.46 0.46 95 1007.7
20260506184602 14 247 4.8 11.3 0.00 0.46 0.46 98 1007.7
20260506183617 13 267 4.8 17.7 0.00 0.46 0.46 100 1007.8
20260506182628 13 251 3.2 16.1 0.00 0.46 0.46 100 1007.6
20260506181646 13 247 4.8 11.3 0.00 0.46 0.46 100 1007.6
20260506180639 13 271 3.2 16.1 0.00 0.46 0.46 100 1007.7
20260506175644 13 274 3.2 12.9 0.00 0.46 0.46 100 1007.6
20260506174646 13 266 6.4 17.7 0.03 0.46 0.46 100 1007.6
20260506173640 13 279 3.2 17.7 0.03 0.46 0.46 100 1007.6
20260506171644 13 230 3.2 12.9 0.03 0.46 0.46 100 1007.4
20260506170623 13 247 4.8 9.7 0.03 0.46 0.46 100 1007.3
20260506165625 13 216 3.2 9.7 0.03 0.46 0.46 100 1007.2
20260506164603 13 237 3.2 11.3 0.00 0.43 0.43 100 1007.2
20260506163630 13 229 4.8 9.7 0.00 0.43 0.43 100 1007.2
20260506161631 13 224 3.2 17.7 0.03 0.43 0.43 100 1007.3
20260506160631 13 228 3.2 11.3 0.03 0.43 0.43 100 1007.2
20260506155601 13 225 4.8 11.3 0.03 0.43 0.43 100 1007.2
20260506154619 13 229 3.2 9.7 0.03 0.43 0.43 100 1007.2
20260506153619 12 220 1.6 8.0 0.03 0.43 0.43 100 1007.1
20260506152631 12 240 1.6 3.2 0.03 0.43 0.43 100 1007.0
20260506151607 12 240 1.6 4.8 0.00 0.41 0.41 100 1007.0
20260506150646 12 240 1.6 3.2 0.00 0.41 0.41 100 1006.9
20260506145606 12 240 0.0 4.8 0.00 0.41 0.41 100 1006.8
20260506144627 12 240 0.0 3.2 0.00 0.41 0.41 100 1006.8
20260506143619 12 240 0.0 3.2 0.03 0.41 0.41 100 1006.9
20260506142645 12 240 0.0 4.8 0.03 0.41 0.41 100 1006.8
20260506141636 12 240 1.6 4.8 0.05 0.41 0.41 100 1006.8
20260506140646 12 239 4.8 6.4 0.08 0.41 0.41 100 1006.8
20260506135645 12 215 1.6 9.7 0.08 0.41 0.41 100 1006.6
20260506134645 12 172 3.2 8.0 0.08 0.41 0.41 100 1006.6
20260506133633 12 204 1.6 4.8 0.05 0.38 0.38 100 1006.8
20260506132620 12 230 0.0 4.8 0.05 0.38 0.38 100 1007.0
20260506131644 12 227 1.6 3.2 0.05 0.36 0.36 100 1007.0
20260506130611 12 227 0.0 3.2 0.05 0.33 0.33 99 1007.0
20260506125608 12 218 1.6 3.2 0.08 0.33 0.33 99 1006.8